Location: Nelson
(41.2830°S, 173.2830°E)
Time: 16:16:28
(UTC+12:00)

Lacrosse 5 - Pass Details

Date: 14 May 2021
Orbit: 715 x 724 km, 57.0° (Epoch: 15 June)

Event Time Altitude Azimuth Distance (km) Brightness Sun altitude
Rises 19:27:51 0° 223° (SW) 3,160 5.7 -24.2°
Reaches altitude 10° 19:30:18 10° 219° (SW) 2,233 4.8 -24.6°
Enters shadow 19:34:39 52° 174° (S) 902 2.2 -25.5°
